Simultaneous Nadir Overpasses (SNOs) Predictions

Prediction of SNOs between NOAA-19 and NPP Satellite Orbit:

Table of predicted SNOs for the next 14.0 days since TLE Epoch: 8/7/2020
Index Date (NOAA-19) Time (NOAA-19) Lat,Lon (NOAA-19) SZA (NOAA-19 ) Date (NPP) Time (NPP) Lat,Lon (NPP) SZA (NPP ) Distance(km) Time Diff (sec)
1 08/14/2020 05:43:40 -79.14,-117.85 113.25 08/14/2020 05:44:52 -79.15,-117.81 113.29 0.97 72
2 08/14/2020 06:34:40 79.14, 49.36 66.76 08/14/2020 06:35:38 79.17, 49.32 66.77 3.76 58
3 08/14/2020 07:25:40 -79.16,-143.21 113.23 08/14/2020 07:26:22 -79.15,-143.20 113.26 1.16 42
4 08/14/2020 08:16:40 79.15, 24.01 66.78 08/14/2020 08:17:08 79.17, 23.93 66.79 2.66 28
5 08/14/2020 09:07:40 -79.17,-168.57 113.21 08/14/2020 09:07:52 -79.15,-168.60 113.24 2.78 12
6 08/14/2020 09:58:40 79.17, -1.34 66.80 08/14/2020 09:58:38 79.17, -1.47 66.82 2.57 2
7 08/14/2020 10:49:41 -79.16, 165.80 113.19 08/14/2020 10:49:23 -79.19, 165.76 113.16 3.20 18
8 08/14/2020 11:40:40 79.16, -26.96 66.82 08/14/2020 11:40:07 79.18, -26.86 66.84 3.14 33
9 08/14/2020 12:31:40 -79.18, 140.45 113.17 08/14/2020 12:30:52 -79.19, 140.37 113.13 2.24 48
10 08/14/2020 13:22:40 79.17, -52.32 66.84 08/14/2020 13:21:37 79.18, -52.25 66.87 1.53 63
